Regional Weather Roundup
Issued by NWS

Home | Current Version | Previous Version | Text Only | Print | Product List | Glossary Off
Versions: 1 2 3 4 5 6 7 8 9 10 11 12 13 14 15 16 17 18 19 20 21 22 23 24 25 26 27 28 29 30 31 32 33 34 35 36 37 38 39 40 41 42 43 44 45 46 47 48 49 50

000
ASUS45 KTFX 280419
RWRMT
MONTANA HOURLY WEATHER ROUNDUP
NATIONAL WEATHER SERVICE GREAT FALLS MT
919 PM MST THU NOV 27 2014

NOTE: "FAIR" INDICATES FEW OR NO CLOUDS BELOW 12000 FEET WITH NO
SIGNIFICANT WEATHER AND/OR OBSTRUCTIONS TO VISIBILITY.

* THESE STATIONS ARE NOT UNDER NWS QUALITY CONTROL. THEY DO NOT
   REPORT WEATHER SUCH AS PRECIPITATION OR FOG.

MTZ001>007-043-280500-
WEST OF THE DIVIDE
CITY           SKY/WX    TMP DP  RH WIND       PRES   REMARKS
KALISPELL      CLOUDY    43  37  79 S7        29.71F
MISSOULA       CLOUDY    46  37  71 E5        29.84F
BUTTE          CLOUDY    45  32  60 S10G21    29.91F
MULLAN PASS    LGT RAIN  36  36 100 SW12G29   29.79F WCI  28
* ESSEX        N/A       40  38  93 S4         N/A
* EUREKA APT   MOCLDY    52  39  61 SE9G24    29.66F
* HAMILTON APT CLOUDY    50  36  59 SE24      29.87F
* LIBBY APT    MOCLDY    43  43 100 CALM      29.70F VSB 1
* LINCOLN      N/A       35  35 100 N2         N/A
* LOOKOUT PASS N/A       42  39  89 E4G15      N/A
* POLSON       N/A       45  39  80 S3G11      N/A
* RONAN APT    PTCLDY    48  39  71 SE10G15    N/A
* SEELEY LAKE  N/A       36  35  96 E1G8       N/A
* THOMP F APT  PTCLDY    39  30  70 NE4        N/A
* YAAK HILL    N/A       44  42  93 NE1        N/A
$$

MTZ008-052>055-280500-
SOUTHWEST MONTANA
CITY           SKY/WX    TMP DP  RH WIND       PRES   REMARKS
BOZEMAN        CLOUDY    46  34  63 W6        29.87F
DILLON         CLOUDY    46  34  63 SW21G26   29.95F
* W YELLOWSTON CLOUDY    38  28  67 S4G10      N/A
* ENNIS APT    CLOUDY   N/A N/A N/A N/A        N/A
* THREE FORKS  CLOUDY    48  -9   9 SW17G29    N/A
* BOULDER HILL N/A       42  28  58 S8G14      N/A
* MONIDA PASS  N/A       37  31  79 SE12G20    N/A   WCI  29
* RAYNOLDS PAS N/A       40  23  51 S8G13      N/A   WCI  35
* WHITEHALL    N/A       51  35  54 SW19G32    N/A
* WISE RIVER   N/A       43  34  71 W7G20      N/A
$$

MTZ009>010-012-014-046-048-049-054-280500-
EAST SLOPES AND CENTRAL MONTANA
CITY           SKY/WX    TMP DP  RH WIND       PRES   REMARKS
CUT BANK       CLEAR     39  36  89 W17       29.62F WCI  30
GREAT FALLS    PTCLDY    46  36  68 W10G21    29.69S
HELENA         CLOUDY    48  36  63 VRB6      29.79S
MALMSTROM AFB  PTCLDY    46  36  68 SW16      29.70F
* CONRAD       CLEAR     37  34  89 CALM       N/A
* DEARBORN     N/A       56  34  44 S15G27     N/A
* EAST GLACIER N/A       40  37  89 W14G20     N/A   WCI  32
* MONARCH      N/A       46  23  40 SW14G26    N/A
* PENDROY      N/A       43  35  73 W20G28     N/A
* ROGERS PASS  N/A       40  34  79 S4G15      N/A
* SAINT MARY   N/A       41  39  93 S8G16      N/A
* SWEET GRASS  N/A       25  25 100 NE6        N/A   WCI  18
* WHITE SULPH  N/A       46  33  61 SW11G25    N/A
$$

MTZ011-013-016-021-035-040-045-047-050-051-280500-
NORTH CENTRAL MONTANA
CITY           SKY/WX    TMP DP  RH WIND       PRES   REMARKS
HAVRE          FOG       28  27  96 N3        29.70S VSB 3/4
LEWISTOWN      MOCLDY    45  32  60 SW9       29.73F
* N BAR RANCH  CLEAR     54  30  40 W29G40    29.73F
* CHINOOK      CLEAR     28  28 100 CALM      29.71R VSB M1/4
* FORT BENTON  CLEAR     48  36  63 SW5       29.67F
* CHESTER      N/A       25  22  88 NE3        N/A
* DENTON       N/A       42  29  60 S14        N/A
* GEYSER       N/A       47  30  52 SW12       N/A
* JUDITH GAP   N/A       48  30  50 SW33G40    N/A
* LOMA         N/A       47  37  68 SW11G16    N/A
$$

MTZ017>020-022>027-061-062-280500-
NORTHEAST MONTANA
CITY           SKY/WX    TMP DP  RH WIND       PRES   REMARKS
GLASGOW        FOG       25  21  85 E13       29.73F WCI  13
GLENDIVE       PTCLDY    30  27  89 SE6       29.74F WCI  24
JORDAN         PTCLDY    28  28 100 CALM      29.70F
SIDNEY         PTCLDY    18  14  84 N8        29.80S WCI   8
WOLF POINT     CLOUDY    21  18  88 NE10      29.79S WCI  10
* BEAVER HILL  N/A       37  31  79 SW1G9      N/A
* CIRCLE       N/A       27  25  92 N5         N/A   WCI  21
* LINDSAY DVD  N/A       43  34  71 SW11       N/A
* NAVAJO       N/A       15  13  92 SE5        N/A   WCI   7
* PLENTYWOOD A CLEAR     16  12  84 N/A       29.80F
* POPLAR APT   CLEAR     18  16  92 N/A       29.79R
* SACO         N/A       25  24  96 E8G13      N/A   WCI  16
$$

MTZ028>042-056>058-280500-
SOUTHCENTRAL AND SOUTHEAST MONTANA
CITY           SKY/WX    TMP DP  RH WIND       PRES   REMARKS
BAKER          MOCLDY    34  30  85 CALM      29.76F
BILLINGS       CLOUDY    48  28  46 SW17      29.78F
LIVINGSTON     CLOUDY    54  34  47 SW44G54   29.81F
MILES CITY     PTCLDY    37  32  82 S7        29.75F WCI  32
* BIG TIMBER A CLOUDY    54  34  47 SW32G43   29.74F
* FORSYTH APT  MOCLDY    48  32  54 W5        29.73F
* LAUREL APT   MOCLDY    45  23  42 SW8        N/A
* ALZADA       N/A       37  29  73 W1         N/A
* HYSHAM       N/A       52  23  32 SW4G11     N/A
* LAME DEER    N/A       49  27  43 SW8        N/A
* REED POINT   N/A       40  31  70 SW2G8      N/A
* ROSCOE HILL  N/A       51  16  25 S22G45     N/A
$$

REGIONAL REPORTS...DAKOTAS
CITY           SKY/WX    TMP DP  RH WIND       PRES   REMARKS
WILLISTON      PTCLDY    12  10  92 E5        29.82F WCI   4
DICKINSON      PTCLDY    19  18  96 S7        29.74F WCI  10
BEACH          CLOUDY    37  32  82 SW9       29.74F WCI  30
CROSBY         CLOUDY    14  10  84 E10       29.86F WCI   1
TIOGA          CLOUDY    12  12 100 SE10      29.86F WCI  -1
BISMARCK       PTCLDY    10   5  80 E10       29.92F WCI  -4
GRAND FORKS    CLOUDY     9   1  70 S14       30.15F WCI  -7
FARGO          LGT SNOW   9   3  76 SE13      30.16F VSB 1 1/2 WCI  -7
BUFFALO SD     CLEAR     32  25  75 S5        29.72F WCI  27
RAPID CITY     CLEAR     34  27  76 CALM      29.86F
$$

REGIONAL REPORTS...WYOMING/IDAHO/WASHINGTON
CITY           SKY/WX    TMP DP  RH WIND       PRES   REMARKS
GILLETTE       PTCLDY    46  28  50 SW15      29.87F
SHERIDAN       CLOUDY    45  28  51 VRB5      29.82F
CODY           PTCLDY    54  27  35 W21G33    29.89F
YELLOWSTONE LA MOCLDY    36  27  70 VRB3      30.11F
SALMON         CLOUDY    46  36  68 E10       29.95F
MULLAN PASS    LGT RAIN  36  36 100 SW12G29   29.79S WCI  28
SAND POINT     CLOUDY    50  43  77 S7        29.72F
SPOKANE        PTCLDY    48  43  83 SW25G36   29.73F
$$

REGIONAL REPORTS...ALBERTA
CITY           SKY/WX    TMP DP  RH WIND       PRES   REMARKS
CALGARY        LGT SNOW   9   3  76 N14       29.68F VSB 2 1/2 WCI  -7
LETHBRIDGE     CLOUDY    25  23  92 NW8       29.67F WCI  16
MEDICINE HAT   FOG       27  27 100 W3        29.68F VSB 1 1/2
EDMONTON       LGT SNOW   1  -4  79 NE12      29.90F VSB 1 1/2 WCI -16
WATERTON GATE  N/A       34  30  85 NE5        N/A   WCI  29
$$

REGIONAL REPORTS...SASKATCHEWAN
CITY           SKY/WX    TMP DP  RH WIND       PRES   REMARKS
SWIFT CURRENT  LGT SNOW  16  14  92 E17       29.71F
REGINA         LGT SNOW  16  12  84 E13       29.89R WCI   2
VAL MARIE      N/A       23  23 100 SE10       N/A   WCI  13
ASSINIBOIA     N/A       14  10  84 E15        N/A   WCI  -1
CORONACH       N/A       18  16  92 E9         N/A   WCI   7

$$



USA.gov is the U.S. government's official web portal to all federal, state and local government web resources and services.